[[{"header":{"parameterUnit":"m.s-1","parameterCategory":1,"la1":30.2991,"la2":30.254,"lo1":-89.0895,"lo2":-89.0444,"dy":0.0017,"dx":0.0017,"nx":28,"ny":28,"refTime":"2023-09-24T21:00:00:Z","depth":0,"parameterNumber":2,"parameterNumberName":"U-component_of_WINDS"},"data":[0,0,0,0,0,0,0,0,0,0,0,0,0,0,0,0,0,0,0,0,0,0,0,0,0,0,0,0,0,0,0,0,0,0,0,0,0,0,0,0,0,0,0,0,0,0,0,0,0,0,0,0,0,0,0,0,0,0,1.1185,1.1184,0,1.1136,1.1135,1.1135,1.1098,1.1098,1.1097,1.1097,1.1046,1.1045,1.1044,0,0,0,0,0,0,0,0,0,0,0,0,0,1.1244,1.1244,1.1185,1.1184,1.1184,1.1136,1.1135,1.1134,1.1098,1.1098,1.1097,1.1097,1.1047,1.1046,1.1044,0,0,0,0,0,0,0,0,0,0,0,0,0,1.1209,1.1243,1.1185,1.116,1.1157,1.1136,1.1135,1.1134,1.1098,1.1098,1.1097,1.1097,1.1047,1.1046,1.1044,1.1044,0,0,1.1039,1.1039,0,0,0,0,0,0,0,0,1.1211,1.1207,1.1164,1.1161,1.1158,1.1122,1.1138,1.1104,1.1098,1.112,1.1097,1.1096,1.1072,1.1068,1.106,1.1042,1.104,1.1039,1.1038,1.1038,1.1037,0,0,0,0,0,0,0,1.1214,1.1209,1.1165,1.1163,1.116,1.115,1.1144,1.1131,1.11,1.1118,1.1116,1.111,1.107,1.1062,1.1059,1.1039,1.1039,1.1038,1.1037,1.1036,1.1015,1.1015,0,0,0,0,0,0,1.122,1.1211,1.1167,1.1164,1.1184,1.1149,1.1143,1.1134,1.11,1.1094,1.1111,1.1109,1.1065,1.1061,1.1057,1.1053,1.1038,1.1036,1.1035,1.1015,1.1015,1.1015,0,0,0,0,0,0,1.1222,1.1217,1.1169,1.1187,1.118,1.1149,1.1139,1.1134,1.1125,1.1094,1.1088,1.1108,1.1064,1.1059,1.1047,1.1051,1.1036,1.1034,1.1014,1.1015,1.1015,1.1046,0,0,0,0,0,0,1.1224,1.1218,1.1218,1.1187,1.1179,1.1161,1.114,1.1133,1.1123,1.112,1.109,1.1084,1.1064,1.105,1.1045,1.1048,1.1033,1.1014,1.1014,1.1015,1.1044,1.1047,1.105,0,0,0,0,0,1.1226,1.1229,1.1218,1.1213,1.1179,1.1161,1.1156,1.1132,1.1123,1.1123,1.1102,1.1085,1.1051,1.1049,1.1044,1.1046,1.1013,1.1014,1.1015,1.1043,1.1047,1.105,0,0,0,0,0,0,1.1262,1.1225,1.1212,1.1206,1.1187,1.1155,1.1154,1.1137,1.1121,1.1119,1.1089,1.1083,1.1073,1.1058,1.1057,1.1043,1.103,1.103,1.1053,1.1056,1.1059,1.1062,1.1032,0,0,0,0,0,1.1269,1.1258,1.1226,1.1223,1.1214,1.1185,1.1177,1.116,1.1139,1.1131,1.1109,1.1089,1.1073,1.1064,1.1048,1.1042,1.1034,1.1041,1.1043,1.1046,1.1046,1.1039,1.1041,1.1018,1.1018,1.1018,0,0,1.1284,1.1262,1.1257,1.1229,1.1213,1.1201,1.1179,1.1168,1.1158,1.1129,1.1115,1.1099,1.1075,1.1065,1.1059,1.1052,1.105,1.1047,1.1049,1.1048,1.104,1.1042,1.1044,1.1019,1.1019,1.1018,0,0,1.1304,1.1287,1.1281,1.1265,1.1239,1.122,1.1219,1.1189,1.1176,1.1163,1.1139,1.1127,1.1102,1.1084,1.1072,1.1083,1.1066,1.1079,1.1093,1.1086,1.1088,1.1089,1.1091,1.1093,1.1079,1.1079,1.1079,0,1.1325,1.1306,1.1281,1.127,1.1258,1.123,1.1223,1.1208,1.1179,1.1171,1.1163,1.1128,1.111,1.1095,1.1097,1.1089,1.1085,1.1082,1.109,1.1091,1.1092,1.1094,1.1095,1.108,1.108,1.108,1.108,0,1.1333,1.132,1.1319,1.129,1.1278,1.1269,1.1241,1.1232,1.1215,1.1196,1.1181,1.1158,1.1136,1.1131,1.1115,1.1112,1.1108,1.1096,1.1082,1.1096,1.1097,1.1098,1.1083,1.1082,1.1082,1.1081,0,0,1.1375,1.1331,1.1331,1.1316,1.1285,1.1275,1.1264,1.1242,1.1233,1.1213,1.1202,1.118,1.1168,1.1154,1.1136,1.113,1.1137,1.1118,1.1117,1.1121,1.113,1.1139,1.114,1.1126,1.1126,1.1126,1.1131,0,1.1389,1.1368,1.1344,1.1332,1.1318,1.1291,1.1281,1.126,1.1242,1.1227,1.1206,1.119,1.1176,1.1167,1.116,1.1138,1.1138,1.1137,1.1114,1.1114,1.112,1.1141,1.1151,1.1157,1.1132,1.1132,1.1132,0,1.1403,1.1383,1.137,1.1337,1.1331,1.1323,1.1299,1.1286,1.1261,1.1248,1.1231,1.1211,1.1197,1.1185,1.1164,1.1163,1.1152,1.114,1.1139,1.1136,1.1123,1.1136,1.1159,1.1159,1.1133,1.1132,1.1132,0,1.1432,1.1403,1.139,1.1379,1.1342,1.1337,1.1321,1.1295,1.1283,1.1262,1.1253,1.1231,1.1219,1.1201,1.1175,1.1169,1.1156,1.1143,1.1143,1.1144,1.1142,1.1142,1.1161,1.1136,1.1136,1.1136,1.1136,0,1.145,1.1442,1.1403,1.1395,1.1385,1.1356,1.1346,1.1328,1.1305,1.1292,1.1267,1.1255,1.1222,1.1206,1.1185,1.1169,1.1164,1.1152,1.1147,1.1154,1.1155,1.1146,1.1144,1.1136,1.1136,1.1136,1.1136,0,1.1481,1.1455,1.1439,1.1404,1.1395,1.1389,1.1359,1.135,1.1329,1.1313,1.1307,1.1275,1.1254,1.1226,1.1198,1.1183,1.117,1.1162,1.1178,1.1175,1.1176,1.1176,1.119,1.1189,1.1166,1.1166,1.1166,0,1.1493,1.1486,1.1451,1.144,1.1425,1.1409,1.1396,1.1367,1.1354,1.1323,1.1317,1.1294,1.1275,1.1243,1.1216,1.1193,1.1183,1.1189,1.118,1.1186,1.1181,1.1182,1.118,1.1192,1.1192,1.1192,1.1193,0,1.1517,1.1504,1.1486,1.1463,1.1448,1.1428,1.1408,1.14,1.1367,1.1353,1.1331,1.1316,1.1285,1.1263,1.1236,1.1218,1.1199,1.1196,1.1194,1.1202,1.1211,1.1204,1.1184,1.1196,1.1195,1.1195,1.1195,1.1195,1.1538,1.153,1.1503,1.1483,1.1465,1.1445,1.1434,1.1412,1.1393,1.1366,1.135,1.1329,1.1301,1.1263,1.1246,1.1228,1.1221,1.122,1.1219,1.1219,1.122,1.1214,1.1223,1.1223,1.1223,1.1223,1.1223,0,1.1559,1.154,1.1522,1.1494,1.1478,1.1462,1.1437,1.1425,1.1406,1.1383,1.1364,1.1338,1.1315,1.1286,1.126,1.1251,1.1242,1.1246,1.1246,1.1241,1.1229,1.1232,1.1254,1.1254,1.1254,1.1254,1.1254,1.1254,1.1568,1.1553,1.1536,1.1511,1.1492,1.1471,1.1458,1.1439,1.142,1.1392,1.1373,1.1354,1.1328,1.13,1.1278,1.127,1.1261,1.1267,1.1256,1.1245,1.1243,1.124,1.1243,1.1266,1.1266,1.127,1.127,1.127]},{"header":{"parameterUnit":"m.s-1","parameterCategory":1,"la1":30.2991,"la2":30.254,"lo1":-89.0895,"lo2":-89.0444,"dy":0.0017,"dx":0.0017,"nx":28,"ny":28,"refTime":"2023-09-24T21:00:00:Z","depth":0,"parameterNumber":3,"parameterNumberName":"V-component_of_WINDS"},"data":[0,0,0,0,0,0,0,0,0,0,0,0,0,0,0,0,0,0,0,0,0,0,0,0,0,0,0,0,0,0,0,0,0,0,0,0,0,0,0,0,0,0,0,0,0,0,0,0,0,0,0,0,0,0,0,0,0,0,3.036,3.0361,0,3.0442,3.0443,3.0444,3.0424,3.0423,3.0421,3.042,3.05,3.0503,3.0507,0,0,0,0,0,0,0,0,0,0,0,0,0,3.0182,3.0185,3.036,3.0361,3.0362,3.0442,3.0443,3.0444,3.0425,3.0423,3.0421,3.0419,3.0499,3.0503,3.0507,0,0,0,0,0,0,0,0,0,0,0,0,0,3.0261,3.0186,3.036,3.0362,3.0363,3.0441,3.0443,3.0444,3.0425,3.0423,3.042,3.0418,3.0497,3.0503,3.0508,3.0588,0,0,3.0524,3.0527,0,0,0,0,0,0,0,0,3.0256,3.0267,3.0361,3.0362,3.0363,3.0421,3.0409,3.0492,3.0426,3.0401,3.042,3.0417,3.0475,3.0482,3.0503,3.0591,3.0595,3.0525,3.0528,3.053,3.0532,0,0,0,0,0,0,0,3.0251,3.0264,3.0392,3.0362,3.0364,3.0357,3.0366,3.0425,3.045,3.0403,3.0402,3.0412,3.0475,3.0497,3.0504,3.0596,3.0525,3.0529,3.0533,3.0535,3.0751,3.0754,0,0,0,0,0,0,3.0245,3.0259,3.0389,3.0395,3.0303,3.0362,3.0372,3.0404,3.045,3.0454,3.0414,3.0411,3.0489,3.0498,3.0507,3.0601,3.053,3.0535,3.0538,3.0749,3.0752,3.0755,0,0,0,0,0,0,3.0241,3.0257,3.0386,3.0327,3.0343,3.0368,3.0404,3.0407,3.0429,3.0458,3.0462,3.0432,3.0488,3.0499,3.0567,3.0604,3.0538,3.0543,3.0746,3.075,3.0753,3.0792,0,0,0,0,0,0,3.0236,3.0255,3.0287,3.0328,3.0346,3.0447,3.0407,3.0411,3.0439,3.0436,3.0476,3.048,3.0487,3.0559,3.0573,3.061,3.0547,3.0743,3.0748,3.0752,3.0788,3.0797,3.0805,0,0,0,0,0,3.023,3.0295,3.0289,3.0305,3.0387,3.0449,3.0459,3.0467,3.0442,3.0473,3.0491,3.0479,3.0598,3.0567,3.0581,3.0621,3.074,3.0746,3.0752,3.0784,3.0795,3.0804,0,0,0,0,0,0,3.0258,3.03,3.0294,3.0375,3.0409,3.0446,3.0486,3.0479,3.0519,3.0514,3.0521,3.053,3.0599,3.0617,3.0581,3.0699,3.0665,3.0674,3.0685,3.0696,3.0704,3.0697,3.0551,0,0,0,0,0,3.0274,3.0322,3.0356,3.0424,3.0441,3.0461,3.0488,3.0491,3.0525,3.0539,3.0562,3.0595,3.0639,3.0669,3.0711,3.079,3.0797,3.0825,3.0833,3.084,3.0847,3.0887,3.0899,3.0773,3.0773,3.0773,0,0,3.0306,3.0335,3.0366,3.043,3.0457,3.0505,3.0473,3.0526,3.0561,3.0547,3.0612,3.063,3.0667,3.074,3.0773,3.0757,3.0883,3.0847,3.0852,3.0856,3.0894,3.0906,3.0917,3.0777,3.0776,3.0776,0,0,3.039,3.0418,3.0476,3.0503,3.0544,3.0556,3.057,3.0608,3.0619,3.0685,3.0675,3.0716,3.0794,3.082,3.0843,3.0934,3.0923,3.0948,3.0992,3.1031,3.1041,3.1049,3.108,3.1091,3.0955,3.0955,3.0955,0,3.0425,3.0499,3.0507,3.056,3.0588,3.0578,3.0635,3.0661,3.0713,3.0731,3.0713,3.0808,3.0832,3.091,3.0932,3.0952,3.0966,3.0943,3.1039,3.1048,3.1056,3.1085,3.1097,3.0958,3.0958,3.0957,3.0957,0,3.0539,3.059,3.0632,3.0683,3.0715,3.077,3.0784,3.0816,3.0815,3.0828,3.0894,3.0923,3.097,3.0989,3.0989,3.1066,3.1054,3.1038,3.1003,3.107,3.1098,3.1109,3.0962,3.0961,3.096,3.0959,0,0,3.0643,3.0696,3.0712,3.0733,3.0777,3.0815,3.0869,3.0916,3.0941,3.0977,3.1021,3.1086,3.107,3.1096,3.1099,3.1133,3.1201,3.1112,3.1113,3.1125,3.1284,3.1295,3.1308,3.1194,3.1196,3.1198,3.128,0,3.0729,3.0825,3.0833,3.0918,3.0964,3.0954,3.1,3.1031,3.1044,3.1084,3.1098,3.1143,3.112,3.1135,3.1169,3.1185,3.1232,3.118,3.1232,3.1234,3.1222,3.1323,3.1336,3.1412,3.1291,3.1293,3.1295,0,3.0843,3.0882,3.0972,3.1007,3.1026,3.1068,3.111,3.1149,3.1182,3.1189,3.1218,3.1215,3.1267,3.1232,3.1303,3.1267,3.1289,3.13,3.1303,3.1307,3.1267,3.1328,3.1437,3.1448,3.1312,3.131,3.1309,0,3.0907,3.0982,3.1045,3.1064,3.1107,3.1136,3.1155,3.1186,3.1213,3.1249,3.1266,3.1308,3.1331,3.1362,3.137,3.1344,3.144,3.1406,3.1446,3.1445,3.1465,3.1464,3.1577,3.1482,3.1482,3.1482,3.1482,0,3.1001,3.1056,3.1074,3.1113,3.1173,3.1181,3.124,3.1256,3.1284,3.1324,3.1318,3.1355,3.1364,3.1402,3.1409,3.1465,3.1476,3.1481,3.1482,3.1481,3.148,3.1494,3.1489,3.1485,3.1484,3.1484,3.1483,0,3.1083,3.1098,3.1165,3.12,3.1209,3.1252,3.1281,3.1317,3.1329,3.1379,3.1392,3.1411,3.1455,3.1466,3.152,3.1524,3.159,3.1586,3.1579,3.1578,3.1616,3.1612,3.1742,3.1758,3.1654,3.1655,3.1656,0,3.1141,3.1183,3.1222,3.1249,3.1269,3.1313,3.134,3.1348,3.1376,3.1416,3.1446,3.1491,3.1526,3.1598,3.1615,3.1655,3.1651,3.1694,3.1657,3.1654,3.1649,3.1646,3.1649,3.1701,3.1702,3.1703,3.1703,0,3.1243,3.1248,3.1288,3.133,3.1363,3.1397,3.1429,3.145,3.1462,3.1494,3.154,3.1568,3.1622,3.1665,3.1705,3.1722,3.1714,3.1715,3.1726,3.1724,3.1717,3.1719,3.1596,3.1712,3.1711,3.171,3.171,3.1709,3.1313,3.1349,3.1382,3.1426,3.1451,3.148,3.1515,3.1532,3.157,3.1616,3.1618,3.1667,3.1696,3.1749,3.1769,3.1806,3.1793,3.1809,3.1813,3.1816,3.1819,3.1713,3.1814,3.1813,3.1813,3.1813,3.1813,0,3.1413,3.1433,3.1474,3.1518,3.1552,3.1543,3.1577,3.1606,3.165,3.1679,3.1714,3.1765,3.1806,3.1827,3.1867,3.1892,3.189,3.1903,3.19,3.1903,3.1829,3.1815,3.1904,3.1904,3.1904,3.1904,3.1904,3.1904,3.1469,3.1528,3.1536,3.1607,3.1626,3.1675,3.1695,3.1721,3.1744,3.1802,3.1836,3.185,3.1874,3.1916,3.1952,3.1957,3.1971,3.1986,3.1988,3.1918,3.1909,3.19,3.1886,3.1989,3.1989,3.2059,3.206,3.206]}]]